Weather History for Henderson, KY

Change the Weather History Date:

Saturday, October 22, 2011

  Actual Average Record
Temperature  
Mean Temperature 50 °F -  
Max Temperature 69 °F 69 °F 89 °F (1953)
Min Temperature 32 °F 44 °F 22 °F (1952)
Degree Days  
Heating Degree Days 14    
Moisture  
Dew Point 33 °F    
Average Humidity 55    
Maximum Humidity 75    
Minimum Humidity 31    
Precipitation  
Precipitation 0.00 in - - ()
Sea Level Pressure  
Sea Level Pressure 30.14 in    
Wind  
Wind Speed 2 mph (SW)    
Max Wind Speed 10 mph    
Max Gust Speed -    
Visibility 10 miles    
Events      
Averages and records for this station are not official NWS values.
T = Trace of Precipitation, MM = Missing Value Source: NWS Daily Summary

Daily Weather History Graph

Daily Weather History Graph

Search for Another Location

Airport:

Trip Planner

Search our weather history database for the weather conditions in past years. The results will help you decide how hot, cold, wet, or windy it might be!

Date:

Astronomy

Oct. 22, 2011 Rise Set
Actual Time 7:05 AM CDT 6:04 PM CDT
Civil Twilight 6:38 AM CDT 6:30 PM CDT
Nautical Twilight 6:08 AM CDT 7:01 PM CDT
Astronomical Twilight 5:37 AM CDT 7:31 PM CDT
Moon 2:07 AM CDT (10/22) 3:17 PM CDT (10/22)
Length of Visible Light 11h 51m
Length of Day
10h 58m
Waning Crescent, 23% of the Moon is Illuminated
Oct 22
Waning Crescent
Oct 26
New
Nov 2
First Quarter
Nov 10
Full
Nov 18
Last Quarter

Hourly Weather History & Observations

Time (CDT) Temp. Dew Point Humidity Pressure Visibility Wind Dir Wind Speed Gust Speed Precip Events Conditions
12:15 AM 35.6 °F 26.6 °F 70% 30.16 in 10.0 mi Calm Calm - N/A   Clear
12:35 AM 35.6 °F 26.6 °F 70% 30.16 in 10.0 mi Calm Calm - N/A   Clear
12:55 AM 35.6 °F 26.6 °F 70% 30.16 in 10.0 mi Calm Calm - N/A   Clear
1:15 AM 33.8 °F 26.6 °F 75% 30.16 in 10.0 mi Calm Calm - N/A   Clear
1:35 AM 35.6 °F 26.6 °F 70% 30.16 in 10.0 mi Calm Calm - N/A   Clear
2:15 AM 33.8 °F 24.8 °F 70% 30.17 in 10.0 mi Calm Calm - N/A   Clear
2:35 AM 33.8 °F 24.8 °F 70% 30.17 in 10.0 mi Calm Calm - N/A   Clear
2:55 AM 35.6 °F 26.6 °F 70% 30.16 in 10.0 mi Calm Calm - N/A   Clear
3:15 AM 33.8 °F 26.6 °F 75% 30.16 in 10.0 mi Calm Calm - N/A   Clear
3:35 AM 33.8 °F 24.8 °F 70% 30.16 in 10.0 mi Calm Calm - N/A   Clear
3:55 AM 33.8 °F 26.6 °F 75% 30.16 in 10.0 mi Calm Calm - N/A   Clear
4:15 AM 33.8 °F 24.8 °F 70% 30.17 in 10.0 mi Calm Calm - N/A   Clear
4:35 AM 33.8 °F 24.8 °F 70% 30.18 in 10.0 mi Calm Calm - N/A   Clear
4:55 AM 33.8 °F 24.8 °F 70% 30.18 in 10.0 mi Calm Calm - N/A   Clear
5:15 AM 33.8 °F 24.8 °F 70% 30.18 in 10.0 mi Calm Calm - N/A   Clear
5:35 AM 33.8 °F 24.8 °F 70% 30.18 in 10.0 mi Calm Calm - N/A   Clear
5:55 AM 33.8 °F 24.8 °F 70% 30.18 in 10.0 mi Calm Calm - N/A   Clear
6:35 AM 32.0 °F 23.0 °F 69% 30.18 in 10.0 mi Calm Calm - N/A   Clear
6:55 AM 33.8 °F 24.8 °F 70% 30.19 in 10.0 mi Calm Calm - N/A   Clear
7:15 AM 33.8 °F 24.8 °F 70% 30.19 in 10.0 mi Calm Calm - N/A   Clear
7:35 AM 32.0 °F 24.8 °F 75% 30.19 in 10.0 mi Calm Calm - N/A   Clear
7:55 AM 33.8 °F 24.8 °F 70% 30.20 in 10.0 mi Calm Calm - N/A   Clear
8:35 AM 42.8 °F 33.8 °F 70% 30.20 in 10.0 mi Calm Calm - N/A   Clear
8:55 AM 46.4 °F 33.8 °F 62% 30.20 in 10.0 mi Calm Calm - N/A   Clear
9:15 AM 51.8 °F 35.6 °F 54% 30.20 in 10.0 mi Calm Calm - N/A   Clear
9:35 AM 53.6 °F 35.6 °F 51% 30.19 in 10.0 mi South 4.6 mph - N/A   Clear
9:55 AM 55.4 °F 37.4 °F 51% 30.19 in 10.0 mi SSW 4.6 mph - N/A   Clear
10:35 AM 57.2 °F 37.4 °F 48% 30.18 in 10.0 mi WSW 6.9 mph - N/A   Clear
10:55 AM 60.8 °F 37.4 °F 42% 30.18 in 10.0 mi SW 8.1 mph - N/A   Clear
11:15 AM 60.8 °F 39.2 °F 45% 30.18 in 10.0 mi SW 5.8 mph - N/A   Clear
11:35 AM 62.6 °F 39.2 °F 42% 30.17 in 10.0 mi SW 5.8 mph - N/A   Clear
11:55 AM 64.4 °F 39.2 °F 40% 30.16 in 10.0 mi SSW 4.6 mph - N/A   Clear
12:15 PM 64.4 °F 39.2 °F 40% 30.15 in 10.0 mi West 5.8 mph - N/A   Clear
12:35 PM 66.2 °F 39.2 °F 37% 30.15 in 10.0 mi WSW 10.4 mph - N/A   Clear
12:55 PM 66.2 °F 37.4 °F 35% 30.13 in 10.0 mi SW 4.6 mph - N/A   Clear
1:15 PM 66.2 °F 37.4 °F 35% 30.12 in 10.0 mi SW 6.9 mph - N/A   Clear
1:35 PM 68.0 °F 37.4 °F 33% 30.11 in 10.0 mi WSW 3.5 mph - N/A   Clear
1:55 PM 66.2 °F 37.4 °F 35% 30.11 in 10.0 mi SW 6.9 mph - N/A   Clear
2:15 PM 68.0 °F 37.4 °F 33% 30.10 in 10.0 mi Calm Calm - N/A   Clear
2:35 PM 69.8 °F 39.2 °F 33% 30.10 in 10.0 mi SSW 8.1 mph - N/A   Clear
2:55 PM 69.8 °F 37.4 °F 31% 30.10 in 10.0 mi SSW 5.8 mph - N/A   Clear
3:15 PM 69.8 °F 37.4 °F 31% 30.09 in 10.0 mi SW 8.1 mph - N/A   Clear
3:35 PM 69.8 °F 37.4 °F 31% 30.09 in 10.0 mi SW 5.8 mph - N/A   Clear
3:55 PM 69.8 °F 39.2 °F 33% 30.09 in 10.0 mi SSW 10.4 mph - N/A   Clear
4:15 PM 69.8 °F 39.2 °F 33% 30.09 in 10.0 mi SW 9.2 mph - N/A   Clear
4:35 PM 69.8 °F 39.2 °F 33% 30.08 in 10.0 mi SW 6.9 mph - N/A   Clear
4:55 PM 68.0 °F 39.2 °F 35% 30.08 in 10.0 mi SSW 5.8 mph - N/A   Clear
5:15 PM 66.2 °F 39.2 °F 37% 30.08 in 10.0 mi SSW 5.8 mph - N/A   Clear
5:35 PM 64.4 °F 39.2 °F 40% 30.08 in 10.0 mi SSW 5.8 mph - N/A   Clear
5:55 PM 60.8 °F 37.4 °F 42% 30.08 in 10.0 mi South 4.6 mph - N/A   Clear
6:15 PM 57.2 °F 37.4 °F 48% 30.09 in 10.0 mi South 3.5 mph - N/A   Clear
6:35 PM 53.6 °F 37.4 °F 54% 30.09 in 10.0 mi South 3.5 mph - N/A   Clear
6:55 PM 51.8 °F 37.4 °F 58% 30.09 in 10.0 mi South 4.6 mph - N/A   Clear
7:15 PM 51.8 °F 37.4 °F 58% 30.10 in 10.0 mi Calm Calm - N/A   Clear
7:35 PM 51.8 °F 37.4 °F 58% 30.10 in 10.0 mi Calm Calm - N/A   Clear
7:55 PM 50.0 °F 37.4 °F 62% 30.09 in 10.0 mi Calm Calm - N/A   Clear
8:15 PM 48.2 °F 35.6 °F 62% 30.09 in 10.0 mi Calm Calm - N/A   Clear
8:35 PM 48.2 °F 35.6 °F 62% 30.09 in 10.0 mi Calm Calm - N/A   Clear
8:55 PM 48.2 °F 35.6 °F 62% 30.09 in 10.0 mi Calm Calm - N/A   Clear
9:35 PM 48.2 °F 35.6 °F 62% 30.09 in 10.0 mi Calm Calm - N/A   Clear
9:55 PM 46.4 °F 35.6 °F 66% 30.09 in 10.0 mi Calm Calm - N/A   Clear
10:15 PM 46.4 °F 35.6 °F 66% 30.09 in 10.0 mi Calm Calm - N/A   Clear
10:55 PM 44.6 °F 33.8 °F 66% 30.07 in 10.0 mi Calm Calm - N/A   Clear
11:15 PM 44.6 °F 33.8 °F 66% 30.06 in 10.0 mi Calm Calm - N/A   Clear
11:35 PM 44.6 °F 33.8 °F 66% 30.07 in 10.0 mi Calm Calm - N/A   Clear
11:55 PM 44.6 °F 33.8 °F 66% 30.06 in 10.0 mi Calm Calm - N/A   Clear